| time (UTC) | temp C | wind direction | speed KPH | gust KPH | rain 1hr cm | rain 24hr cm | rain mn cm | humidity % | barometer mb |
| 20260505035205 | 20 | 0 | 0.0 | 0.0 | 0.00 | 0.00 | 0.00 | 64 | 1009.0 |
| 20260505034706 | 20 | 0 | 0.0 | 0.0 | 0.00 | 0.00 | 0.00 | 63 | 1008.9 |
| 20260505034205 | 20 | 0 | 0.0 | 0.0 | 0.00 | 0.00 | 0.00 | 63 | 1008.8 |
| 20260505033706 | 21 | 0 | 0.0 | 0.0 | 0.00 | 0.00 | 0.00 | 61 | 1008.7 |
| 20260505033205 | 21 | 0 | 0.0 | 0.0 | 0.00 | 0.00 | 0.00 | 61 | 1008.6 |
| 20260505032705 | 21 | 0 | 0.0 | 0.0 | 0.00 | 0.00 | 0.00 | 60 | 1008.6 |
| 20260505032205 | 21 | 0 | 0.0 | 0.0 | 0.00 | 0.00 | 0.00 | 59 | 1008.5 |
| 20260505031954 | 22 | 0 | 0.0 | 0.0 | 0.00 | 0.00 | 0.00 | 57 | 1008.4 |
| 20260505031205 | 22 | 0 | 0.0 | 0.0 | 0.00 | 0.00 | 0.00 | 55 | 1008.4 |
| 20260505030957 | 22 | 0 | 0.0 | 3.2 | 0.00 | 0.00 | 0.00 | 54 | 1008.3 |
| 20260505030456 | 22 | 0 | 0.0 | 3.2 | 0.00 | 0.00 | 0.00 | 52 | 1008.3 |
| 20260505025704 | 23 | 0 | 0.0 | 0.0 | 0.00 | 0.00 | 0.00 | 52 | 1008.3 |
| 20260505025204 | 23 | 0 | 0.0 | 0.0 | 0.00 | 0.00 | 0.00 | 51 | 1008.3 |
| 20260505024704 | 23 | 0 | 0.0 | 4.8 | 0.00 | 0.00 | 0.00 | 50 | 1008.2 |
| 20260505024204 | 23 | 0 | 0.0 | 4.8 | 0.00 | 0.00 | 0.00 | 49 | 1008.2 |
| 20260505023703 | 23 | 0 | 0.0 | 4.8 | 0.00 | 0.00 | 0.00 | 47 | 1008.2 |
| 20260505023201 | 24 | 0 | 0.0 | 6.4 | 0.00 | 0.00 | 0.00 | 46 | 1008.2 |
| 20260505022701 | 24 | 0 | 0.0 | 6.4 | 0.00 | 0.00 | 0.00 | 45 | 1008.2 |
| 20260505022452 | 24 | 335 | 0.0 | 4.8 | 0.00 | 0.00 | 0.00 | 45 | 1008.2 |
| 20260505021701 | 25 | 0 | 0.0 | 4.8 | 0.00 | 0.00 | 0.00 | 43 | 1008.2 |
| 20260505021201 | 25 | 0 | 0.0 | 4.8 | 0.00 | 0.00 | 0.00 | 42 | 1008.2 |
| 20260505020954 | 25 | 0 | 0.0 | 0.0 | 0.00 | 0.00 | 0.00 | 42 | 1008.2 |
| 20260505020201 | 25 | 0 | 0.0 | 3.2 | 0.00 | 0.00 | 0.00 | 41 | 1008.2 |
| 20260505015700 | 25 | 0 | 0.0 | 3.2 | 0.00 | 0.00 | 0.00 | 41 | 1008.2 |
| 20260505015200 | 25 | 0 | 0.0 | 4.8 | 0.00 | 0.00 | 0.00 | 38 | 1008.2 |
| 20260505014700 | 25 | 315 | 0.0 | 6.4 | 0.00 | 0.00 | 0.00 | 39 | 1008.2 |
| 20260505014201 | 25 | 0 | 0.0 | 6.4 | 0.00 | 0.00 | 0.00 | 37 | 1008.2 |
| 20260505013701 | 25 | 0 | 1.6 | 6.4 | 0.00 | 0.00 | 0.00 | 37 | 1008.2 |
| 20260505013200 | 25 | 0 | 1.6 | 6.4 | 0.00 | 0.00 | 0.00 | 36 | 1008.2 |
| 20260505012701 | 26 | 0 | 0.0 | 4.8 | 0.00 | 0.00 | 0.00 | 36 | 1008.3 |
| 20260505012200 | 26 | 0 | 0.0 | 6.4 | 0.00 | 0.00 | 0.00 | 36 | 1008.3 |
| 20260505011952 | 26 | 0 | 1.6 | 6.4 | 0.00 | 0.00 | 0.00 | 35 | 1008.3 |
| 20260505011201 | 26 | 0 | 1.6 | 8.0 | 0.00 | 0.00 | 0.00 | 36 | 1008.3 |
| 20260505010952 | 26 | 326 | 3.2 | 8.0 | 0.00 | 0.00 | 0.00 | 35 | 1008.4 |
| 20260505010450 | 26 | 343 | 3.2 | 9.7 | 0.00 | 0.00 | 0.00 | 35 | 1008.4 |
| 20260505005701 | 26 | 0 | 3.2 | 9.7 | 0.00 | 0.00 | 0.00 | 36 | 1008.4 |
| 20260505005201 | 26 | 0 | 1.6 | 6.4 | 0.00 | 0.00 | 0.00 | 35 | 1008.4 |
| 20260505004700 | 26 | 317 | 1.6 | 6.4 | 0.00 | 0.00 | 0.00 | 37 | 1008.4 |
| 20260505004451 | 26 | 179 | 3.2 | 8.0 | 0.00 | 0.00 | 0.00 | 36 | 1008.4 |
| 20260505003702 | 26 | 0 | 3.2 | 8.0 | 0.00 | 0.00 | 0.00 | 36 | 1008.4 |
| 20260505003203 | 26 | 342 | 1.6 | 8.0 | 0.00 | 0.00 | 0.00 | 34 | 1008.4 |
| 20260505002951 | 26 | 336 | 1.6 | 8.0 | 0.00 | 0.00 | 0.00 | 34 | 1008.4 |
| 20260505002202 | 26 | 0 | 1.6 | 6.4 | 0.00 | 0.00 | 0.00 | 35 | 1008.4 |
| 20260505001952 | 26 | 0 | 1.6 | 6.4 | 0.00 | 0.00 | 0.00 | 34 | 1008.5 |
| 20260505001201 | 26 | 144 | 1.6 | 6.4 | 0.00 | 0.00 | 0.00 | 35 | 1008.5 |
| 20260505000701 | 26 | 0 | 1.6 | 6.4 | 0.00 | 0.00 | 0.00 | 35 | 1008.4 |
| 20260505000201 | 26 | 330 | 3.2 | 6.4 | 0.00 | 0.00 | 0.00 | 34 | 1008.5 |
| 20260504235701 | 26 | 322 | 1.6 | 4.8 | 0.00 | 0.00 | 0.00 | 34 | 1008.6 |
| 20260504235200 | 26 | 318 | 1.6 | 6.4 | 0.00 | 0.00 | 0.00 | 35 | 1008.6 |
| 20260504234700 | 26 | 0 | 1.6 | 6.4 | 0.00 | 0.00 | 0.00 | 36 | 1008.6 |
| 20260504234201 | 26 | 0 | 3.2 | 11.3 | 0.00 | 0.00 | 0.00 | 35 | 1008.6 |
| 20260504233701 | 26 | 0 | 3.2 | 11.3 | 0.00 | 0.00 | 0.00 | 36 | 1008.6 |
| 20260504233201 | 26 | 334 | 3.2 | 9.7 | 0.00 | 0.00 | 0.00 | 36 | 1008.6 |
| 20260504232701 | 26 | 0 | 3.2 | 9.7 | 0.00 | 0.00 | 0.00 | 35 | 1008.6 |
| 20260504232200 | 26 | 335 | 3.2 | 9.7 | 0.00 | 0.00 | 0.00 | 36 | 1008.6 |
| 20260504231702 | 26 | 0 | 3.2 | 6.4 | 0.00 | 0.00 | 0.00 | 35 | 1008.6 |
| 20260504231201 | 26 | 312 | 3.2 | 6.4 | 0.00 | 0.00 | 0.00 | 36 | 1008.6 |
| 20260504230701 | 26 | 0 | 3.2 | 11.3 | 0.00 | 0.00 | 0.00 | 37 | 1008.6 |
| 20260504230200 | 26 | 0 | 1.6 | 11.3 | 0.00 | 0.00 | 0.00 | 37 | 1008.7 |
| 20260504225701 | 26 | 323 | 1.6 | 8.0 | 0.00 | 0.00 | 0.00 | 37 | 1008.8 |
| 20260504225201 | 26 | 291 | 3.2 | 8.0 | 0.00 | 0.00 | 0.00 | 37 | 1008.8 |
| 20260504224734 | 26 | 344 | 3.2 | 8.0 | 0.00 | 0.00 | 0.00 | 37 | 1008.9 |
| 20260504223703 | 26 | 199 | 3.2 | 9.7 | 0.00 | 0.00 | 0.00 | 39 | 1008.9 |
| 20260504223203 | 26 | 342 | 3.2 | 11.3 | 0.00 | 0.00 | 0.00 | 39 | 1009.1 |
| 20260504222948 | 26 | 340 | 4.8 | 11.3 | 0.00 | 0.00 | 0.00 | 38 | 1009.2 |
| 20260504222200 | 26 | 342 | 4.8 | 12.9 | 0.00 | 0.00 | 0.00 | 38 | 1009.1 |
| 20260504221701 | 26 | 336 | 3.2 | 12.9 | 0.00 | 0.00 | 0.00 | 38 | 1009.2 |
| 20260504221201 | 26 | 336 | 3.2 | 9.7 | 0.00 | 0.00 | 0.00 | 38 | 1009.2 |
| 20260504220701 | 25 | 0 | 3.2 | 8.0 | 0.00 | 0.00 | 0.00 | 38 | 1009.3 |
| 20260504220201 | 25 | 320 | 4.8 | 9.7 | 0.00 | 0.00 | 0.00 | 37 | 1009.3 |
| 20260504215700 | 25 | 329 | 4.8 | 9.7 | 0.00 | 0.00 | 0.00 | 38 | 1009.3 |
| 20260504215201 | 26 | 337 | 3.2 | 8.0 | 0.00 | 0.00 | 0.00 | 36 | 1009.4 |
| 20260504214701 | 25 | 328 | 4.8 | 9.7 | 0.00 | 0.00 | 0.00 | 36 | 1009.4 |
| 20260504214448 | 26 | 330 | 4.8 | 9.7 | 0.00 | 0.00 | 0.00 | 36 | 1009.3 |
| 20260504213701 | 26 | 341 | 4.8 | 9.7 | 0.00 | 0.00 | 0.00 | 36 | 1009.4 |
| 20260504213200 | 26 | 62 | 3.2 | 9.7 | 0.00 | 0.00 | 0.00 | 36 | 1009.3 |
| 20260504212701 | 25 | 305 | 4.8 | 11.3 | 0.00 | 0.00 | 0.00 | 38 | 1009.3 |
| 20260504212448 | 25 | 309 | 4.8 | 11.3 | 0.00 | 0.00 | 0.00 | 37 | 1009.3 |
| 20260504211701 | 25 | 330 | 4.8 | 8.0 | 0.00 | 0.00 | 0.00 | 37 | 1009.3 |
| 20260504211201 | 25 | 324 | 3.2 | 11.3 | 0.00 | 0.00 | 0.00 | 37 | 1009.3 |
| 20260504210701 | 25 | 319 | 3.2 | 11.3 | 0.00 | 0.00 | 0.00 | 38 | 1009.3 |
| 20260504210201 | 25 | 338 | 3.2 | 8.0 | 0.00 | 0.00 | 0.00 | 39 | 1009.4 |
| 20260504205702 | 25 | 327 | 3.2 | 8.0 | 0.00 | 0.00 | 0.00 | 38 | 1009.4 |
| 20260504205203 | 25 | 0 | 3.2 | 9.7 | 0.00 | 0.00 | 0.00 | 38 | 1009.6 |
| 20260504204703 | 25 | 0 | 3.2 | 11.3 | 0.00 | 0.00 | 0.00 | 39 | 1009.6 |
| 20260504204203 | 25 | 337 | 4.8 | 11.3 | 0.00 | 0.00 | 0.00 | 39 | 1009.6 |
| 20260504203702 | 25 | 332 | 3.2 | 9.7 | 0.00 | 0.00 | 0.00 | 39 | 1009.6 |
| 20260504203449 | 25 | 337 | 4.8 | 9.7 | 0.00 | 0.00 | 0.00 | 41 | 1009.5 |
| 20260504202948 | 25 | 344 | 4.8 | 9.7 | 0.00 | 0.00 | 0.00 | 41 | 1009.5 |
| 20260504202201 | 25 | 300 | 3.2 | 9.7 | 0.00 | 0.00 | 0.00 | 41 | 1009.5 |
| 20260504201701 | 25 | 334 | 3.2 | 9.7 | 0.00 | 0.00 | 0.00 | 41 | 1009.5 |
| 20260504201201 | 25 | 347 | 4.8 | 9.7 | 0.00 | 0.00 | 0.00 | 42 | 1009.5 |
| 20260504200700 | 25 | 309 | 3.2 | 6.4 | 0.00 | 0.00 | 0.00 | 42 | 1009.5 |
| 20260504200201 | 24 | 314 | 3.2 | 8.0 | 0.00 | 0.00 | 0.00 | 43 | 1009.5 |
| 20260504195701 | 24 | 0 | 1.6 | 8.0 | 0.00 | 0.00 | 0.00 | 43 | 1009.5 |
| 20260504195201 | 24 | 310 | 3.2 | 8.0 | 0.00 | 0.00 | 0.00 | 41 | 1009.5 |
| 20260504194701 | 24 | 340 | 1.6 | 8.0 | 0.00 | 0.00 | 0.00 | 41 | 1009.6 |
| 20260504194201 | 24 | 331 | 1.6 | 6.4 | 0.00 | 0.00 | 0.00 | 43 | 1009.6 |
| 20260504193700 | 23 | 313 | 3.2 | 6.4 | 0.00 | 0.00 | 0.00 | 43 | 1009.8 |
| 20260504193200 | 23 | 327 | 3.2 | 6.4 | 0.00 | 0.00 | 0.00 | 42 | 1009.8 |
| 20260504192659 | 23 | 0 | 1.6 | 6.4 | 0.00 | 0.00 | 0.00 | 42 | 1009.8 |
| 20260504192231 | 23 | 302 | 1.6 | 6.4 | 0.00 | 0.00 | 0.00 | 43 | 1009.8 |
| 20260504191200 | 23 | 301 | 3.2 | 9.7 | 0.00 | 0.00 | 0.00 | 41 | 1009.8 |
| 20260504190700 | 22 | 0 | 1.6 | 8.0 | 0.00 | 0.00 | 0.00 | 43 | 1009.9 |
| 20260504190446 | 22 | 0 | 1.6 | 4.8 | 0.00 | 0.00 | 0.00 | 42 | 1009.9 |
| 20260504185700 | 22 | 315 | 1.6 | 6.4 | 0.00 | 0.00 | 0.00 | 44 | 1009.9 |
| 20260504185200 | 22 | 0 | 1.6 | 8.0 | 0.00 | 0.00 | 0.00 | 43 | 1010.0 |
| 20260504184700 | 22 | 0 | 1.6 | 8.0 | 0.00 | 0.00 | 0.00 | 43 | 1010.0 |
| 20260504184200 | 22 | 0 | 1.6 | 8.0 | 0.00 | 0.00 | 0.00 | 46 | 1010.0 |
| 20260504183657 | 22 | 177 | 0.0 | 8.0 | 0.00 | 0.00 | 0.00 | 45 | 1009.9 |
| 20260504183443 | 22 | 307 | 0.0 | 4.8 | 0.00 | 0.00 | 0.00 | 46 | 1010.0 |
| 20260504182657 | 22 | 0 | 0.0 | 4.8 | 0.00 | 0.00 | 0.00 | 46 | 1010.1 |
| 20260504182443 | 21 | 0 | 1.6 | 9.7 | 0.00 | 0.00 | 0.00 | 46 | 1010.0 |
| 20260504181938 | 21 | 0 | 1.6 | 9.7 | 0.00 | 0.00 | 0.00 | 47 | 1010.0 |
| 20260504181150 | 21 | 0 | 3.2 | 6.4 | 0.00 | 0.00 | 0.00 | 47 | 1010.1 |
| 20260504180651 | 21 | 331 | 1.6 | 6.4 | 0.00 | 0.00 | 0.00 | 48 | 1010.1 |
| 20260504180151 | 21 | 0 | 1.6 | 4.8 | 0.00 | 0.00 | 0.00 | 47 | 1010.1 |
| 20260504175650 | 21 | 277 | 1.6 | 6.4 | 0.00 | 0.00 | 0.00 | 49 | 1010.1 |
| 20260504175151 | 21 | 0 | 1.6 | 6.4 | 0.00 | 0.00 | 0.00 | 50 | 1010.1 |
| 20260504174940 | 21 | 0 | 1.6 | 6.4 | 0.00 | 0.00 | 0.00 | 50 | 1010.0 |
| 20260504174151 | 21 | 342 | 1.6 | 6.4 | 0.00 | 0.00 | 0.00 | 51 | 1010.1 |
| 20260504173651 | 21 | 0 | 3.2 | 8.0 | 0.00 | 0.00 | 0.00 | 51 | 1010.0 |
| 20260504173151 | 20 | 0 | 1.6 | 8.0 | 0.00 | 0.00 | 0.00 | 49 | 1009.9 |
| 20260504172650 | 20 | 337 | 0.0 | 4.8 | 0.00 | 0.00 | 0.00 | 50 | 1009.9 |
| 20260504172150 | 20 | 0 | 0.0 | 4.8 | 0.00 | 0.00 | 0.00 | 51 | 1010.0 |
| 20260504171940 | 20 | 0 | 0.0 | 4.8 | 0.00 | 0.00 | 0.00 | 52 | 1010.0 |
| 20260504171150 | 20 | 0 | 0.0 | 3.2 | 0.00 | 0.00 | 0.00 | 54 | 1010.0 |
| 20260504170650 | 20 | 0 | 1.6 | 4.8 | 0.00 | 0.00 | 0.00 | 57 | 1010.0 |
| 20260504170150 | 20 | 345 | 1.6 | 4.8 | 0.00 | 0.00 | 0.00 | 57 | 1010.0 |
| 20260504160147 | 16 | 0 | 0.0 | 1.6 | 0.00 | 0.00 | 0.00 | 68 | 1009.8 |
| 20260504151146 | 13 | 280 | 1.6 | 3.2 | 0.00 | 0.00 | 0.00 | 79 | 1009.5 |
| 20260504150647 | 13 | 280 | 1.6 | 3.2 | 0.00 | 0.00 | 0.00 | 81 | 1009.5 |
| 20260504150146 | 12 | 278 | 1.6 | 3.2 | 0.00 | 0.00 | 0.00 | 84 | 1009.4 |
| 20260504141144 | 10 | 0 | 0.0 | 0.0 | 0.00 | 0.00 | 0.00 | 95 | 1009.2 |
| 20260504140644 | 10 | 0 | 0.0 | 0.0 | 0.00 | 0.00 | 0.00 | 95 | 1009.2 |
| 20260504140144 | 10 | 0 | 0.0 | 0.0 | 0.00 | 0.00 | 0.00 | 95 | 1009.2 |
| 20260504130142 | 10 | 0 | 0.0 | 0.0 | 0.00 | 0.00 | 0.00 | 95 | 1008.7 |
| 20260504120147 | 10 | 0 | 0.0 | 0.0 | 0.00 | 0.00 | 0.00 | 94 | 1008.6 |
| 20260504110638 | 11 | 0 | 0.0 | 3.2 | 0.00 | 0.00 | 0.00 | 93 | 1008.7 |
| 20260504110138 | 11 | 0 | 0.0 | 0.0 | 0.00 | 0.00 | 0.00 | 93 | 1008.6 |
| 20260504100133 | 11 | 0 | 0.0 | 4.8 | 0.00 | 0.00 | 0.00 | 92 | 1008.5 |
| 20260504090128 | 12 | 0 | 0.0 | 0.0 | 0.00 | 0.00 | 0.00 | 91 | 1008.5 |
| 20260504081629 | 12 | 0 | 0.0 | 0.0 | 0.00 | 0.00 | 0.00 | 90 | 1008.5 |
| 20260504081129 | 12 | 0 | 0.0 | 0.0 | 0.00 | 0.00 | 0.00 | 87 | 1008.6 |
| 20260504080629 | 13 | 0 | 0.0 | 0.0 | 0.00 | 0.00 | 0.00 | 87 | 1008.6 |
| 20260504080129 | 13 | 0 | 0.0 | 0.0 | 0.00 | 0.00 | 0.00 | 86 | 1008.7 |
| 20260504070129 | 14 | 0 | 0.0 | 0.0 | 0.00 | 0.00 | 0.00 | 87 | 1008.8 |
| 20260504060129 | 15 | 0 | 0.0 | 0.0 | 0.00 | 0.00 | 0.00 | 81 | 1008.8 |
| 20260504050628 | 17 | 0 | 0.0 | 0.0 | 0.00 | 0.00 | 0.00 | 77 | 1008.8 |
| 20260504050421 | 17 | 0 | 0.0 | 0.0 | 0.00 | 0.00 | 0.00 | 78 | 1008.8 |
| 20260504045628 | 17 | 0 | 0.0 | 0.0 | 0.00 | 0.00 | 0.00 | 73 | 1008.8 |
| 20260504045128 | 17 | 0 | 0.0 | 0.0 | 0.00 | 0.00 | 0.00 | 73 | 1008.8 |
| 20260504044628 | 17 | 0 | 0.0 | 0.0 | 0.00 | 0.00 | 0.00 | 73 | 1008.8 |
| 20260504044128 | 17 | 0 | 0.0 | 0.0 | 0.00 | 0.00 | 0.00 | 72 | 1008.8 |
| 20260504043919 | 18 | 0 | 0.0 | 0.0 | 0.00 | 0.00 | 0.00 | 71 | 1008.8 |
| 20260504043129 | 18 | 0 | 0.0 | 0.0 | 0.00 | 0.00 | 0.00 | 69 | 1008.8 |
| 20260504042628 | 18 | 0 | 0.0 | 0.0 | 0.00 | 0.00 | 0.00 | 71 | 1008.8 |
| 20260504042128 | 18 | 0 | 0.0 | 0.0 | 0.00 | 0.00 | 0.00 | 67 | 1008.7 |
| 20260504041629 | 19 | 0 | 0.0 | 0.0 | 0.00 | 0.00 | 0.00 | 66 | 1008.6 |
| 20260504041129 | 19 | 0 | 0.0 | 0.0 | 0.00 | 0.00 | 0.00 | 65 | 1008.6 |
| 20260504040629 | 19 | 0 | 0.0 | 0.0 | 0.00 | 0.00 | 0.00 | 64 | 1008.6 |
| 20260504040129 | 20 | 0 | 0.0 | 0.0 | 0.00 | 0.00 | 0.00 | 63 | 1008.6 |
| 20260504035629 | 20 | 0 | 0.0 | 0.0 | 0.00 | 0.00 | 0.00 | 61 | 1008.6 |